Location: Newark
(41.6500°N, 71.4833°W)
Time: 14:57:32
(UTC+00:00)

A-11 Canister half - Pass Details

Date: 29 January 2020
Orbit: 1517 x 1683 km, 47.2° (Epoch: 22 February)

Event Time Altitude Azimuth Distance (km) Brightness Sun altitude
Rises 01:02:46 0° 189° (S) 4,805 11.6 -34.9°
Reaches altitude 10° 01:06:43 10° 176° (S) 3,795 10.9 -35.6°
Enters shadow 01:07:06 11° 175° (S) 3,706 10.9 -35.7°
Maximum altitude 01:13:45 23° 128° (SE) 2,834 - -36.9°
Drops below altitude 10° 01:20:38 10° 80° (E) 3,717 - -38.2°
Sets 01:24:25 0° 68° (ENE) 4,686 - -38.9°
